This is the latest recevied weather packets stored in our database for station/object N7CW. If no packets are shown the sender has not sent any weather packets the latest 10 day(s).
| Time | Temp. | Humidity | Pressure | Rain* | Wind** | Luminosity | Snow |
|---|---|---|---|---|---|---|---|
| 1778104816 | 18.33° C | 30% | 1017.4 hPa | 0 mm | - | 135 W/m² | - |
| 1778104514 | 20° C | 28% | 1017.3 hPa | 0 mm | - | 131 W/m² | - |
| 1778104209 | 20° C | 27% | 1017.5 hPa | 0 mm | - | 659 W/m² | - |
| 1778103906 | 18.89° C | 27% | 1017.8 hPa | 0 mm | - | 747 W/m² | - |
| 1778103604 | 18.89° C | 27% | 1017.8 hPa | 0 mm | - | 312 W/m² | - |
| 1778103302 | 18.89° C | 28% | 1017.5 hPa | 0 mm | - | 231 W/m² | - |
| 1778102998 | 18.89° C | 28% | 1017.7 hPa | 0 mm | - | 261 W/m² | - |
| 1778102694 | 20° C | 27% | 1017.7 hPa | 0 mm | - | 238 W/m² | - |
| 1778102389 | 20.56° C | 26% | 1017.7 hPa | 0 mm | - | 726 W/m² | - |
| 1778102086 | 18.89° C | 28% | 1017.8 hPa | 0 mm | - | 775 W/m² | - |
| 1778101783 | 18.33° C | 29% | 1018.1 hPa | 0 mm | - | 128 W/m² | - |
| 1778101479 | 18.89° C | 28% | 1018 hPa | 0 mm | - | 829 W/m² | - |
| 1778101177 | 19.44° C | 28% | 1018.2 hPa | 0 mm | - | 785 W/m² | - |
| 1778100873 | 20° C | 27% | 1018.1 hPa | 0 mm | - | 785 W/m² | - |
| 1778100569 | 20° C | 27% | 1018 hPa | 0 mm | - | 785 W/m² | - |
| 1778100267 | 18.33° C | 28% | 1018.1 hPa | 0 mm | - | 785 W/m² | - |
| 1778099964 | 18.33° C | 29% | 1018.4 hPa | 0 mm | - | 785 W/m² | - |
| 1778099661 | 18.89° C | 28% | 1018.2 hPa | 0 mm | - | 793 W/m² | - |
| 1778099358 | 18.33° C | 29% | 1018.4 hPa | 0 mm | - | 799 W/m² | - |
| 1778099054 | 18.33° C | 29% | 1018.1 hPa | 0 mm | - | 803 W/m² | - |
| 1778098751 | 17.78° C | 29% | 1018.4 hPa | 0 mm | - | 805 W/m² | - |
| 1778098449 | 18.33° C | 29% | 1018.4 hPa | 0 mm | - | 812 W/m² | - |
| 1778098145 | 18.89° C | 29% | 1018.2 hPa | 0 mm | - | 813 W/m² | - |
| 1778097841 | 18.33° C | 29% | 1018.1 hPa | 0 mm | - | 815 W/m² | - |
| 1778097538 | 18.33° C | 29% | 1018.2 hPa | 0 mm | - | 818 W/m² | - |
* Rain latest hour (hover to see other rain measurements)
** Current wind speed in m/s (hover to see current wind gust speed)